Location: Molino di Ancona
(43.6167°N, 13.3667°E)
Time: 14:49:22
(UTC+00:00)

Cosmos 2263 Rocket - Pass Details

Date: 15 December 2019
Orbit: 824 x 848 km, 71.0° (Epoch: 25 January)

Event Time Altitude Azimuth Distance (km) Brightness Sun altitude
Exits shadow 05:23:48 14° 312° (NW) 2,157 3.7 -12.0°
Maximum altitude 05:24:14 14° 317° (NW) 2,150 3.8 -11.9°
Drops below altitude 10° 05:27:07 10° 349° (NNW) 2,433 4.3 -11.4°
Sets 05:30:52 0° 14° (NNE) 3,370 5.2 -10.8°
